This is the latest recevied weather packets stored in our database for station/object SV9TNF-2. If no packets are shown the sender has not sent any weather packets the latest 10 day(s).
| Time | Temp. | Humidity | Pressure | Rain* | Wind** | Luminosity | Snow |
|---|---|---|---|---|---|---|---|
| 1777885519 | 17.22° C | 50% | 1026.4 hPa | 0 mm | 14.31 m/s, 15° | - | - |
| 1777885219 | 17.78° C | 51% | 1026.4 hPa | 0 mm | 13.86 m/s, 21° | - | - |
| 1777884919 | 17.78° C | 49% | 1026.4 hPa | 0 mm | 11.18 m/s, 356° | - | - |
| 1777884619 | 17.22° C | 52% | 1026.4 hPa | 0 mm | 8.05 m/s, 50° | - | - |
| 1777884319 | 16.67° C | 48% | 1026.4 hPa | 0 mm | 16.54 m/s, 8° | - | - |
| 1777884019 | 17.22° C | 50% | 1026.4 hPa | 0 mm | 8.49 m/s, 6° | - | - |
| 1777883719 | 16.67° C | 50% | 1026.4 hPa | 0 mm | 18.33 m/s, 19° | - | - |
| 1777883419 | 17.78° C | 50% | 1026.4 hPa | 0 mm | 10.28 m/s, 21° | - | - |
| 1777883119 | 18.33° C | 47% | 1026.4 hPa | 0 mm | 11.62 m/s, 58° | - | - |
| 1777882819 | 17.78° C | 49% | 1026.1 hPa | 0 mm | 10.73 m/s, 266° | - | - |
| 1777882518 | 17.78° C | 52% | 1026.1 hPa | 0 mm | 16.99 m/s, 6° | - | - |
| 1777882218 | 17.78° C | 51% | 1026.1 hPa | 0 mm | 13.86 m/s, 333° | - | - |
| 1777881918 | 16.67° C | 50% | 1026.1 hPa | 0 mm | 19.67 m/s, 2° | - | - |
| 1777881618 | 16.67° C | 50% | 1026.1 hPa | 0 mm | 18.33 m/s, 3° | - | - |
| 1777881318 | 16.11° C | 51% | 1026.1 hPa | 0 mm | 25.48 m/s, 17° | - | - |
| 1777881018 | 16.67° C | 52% | 1026.1 hPa | 0 mm | 20.56 m/s, 27° | - | - |
| 1777880718 | 16.67° C | 54% | 1026.1 hPa | 0 mm | 13.41 m/s, 2° | - | - |
| 1777880418 | 16.67° C | 55% | 1026.1 hPa | 0 mm | 13.86 m/s, 342° | - | - |
| 1777880118 | 16.67° C | 50% | 1026.1 hPa | 0 mm | 16.99 m/s, 12° | - | - |
| 1777879818 | 16.67° C | 51% | 1026.1 hPa | 0 mm | 15.2 m/s, 80° | - | - |
| 1777879517 | 16.11° C | 54% | 1026.1 hPa | 0 mm | 23.25 m/s, 16° | - | - |
| 1777879217 | 16.67° C | 55% | 1025.7 hPa | 0 mm | 17.88 m/s, 52° | - | - |
| 1777878918 | 16.67° C | 56% | 1025.7 hPa | 0 mm | 10.73 m/s, 84° | - | - |
| 1777878617 | 16.67° C | 52% | 1025.7 hPa | 0 mm | 12.52 m/s, 6° | - | - |
| 1777878317 | 16.67° C | 50% | 1025.7 hPa | 0 mm | 18.33 m/s, 29° | - | - |
* Rain latest hour (hover to see other rain measurements)
** Current wind speed in m/s (hover to see current wind gust speed)